Weather History for KISW - January, 2014

Change the Weather History Date:

Sunday, January 5, 2014

  Actual Average Record
Temperature  
Mean Temperature -2 °F -  
Max Temperature 7 °F 23 °F 44 °F (2007)
Min Temperature -14 °F 1 °F -23 °F (1959)
Degree Days  
Heating Degree Days 67    
Moisture  
Dew Point -14 °F    
Average Humidity 62    
Maximum Humidity 70    
Minimum Humidity 54    
Precipitation  
Precipitation 0.00 in - - ()
Sea Level Pressure  
Sea Level Pressure 30.25 in    
Wind  
Wind Speed 11 mph (NW)    
Max Wind Speed 17 mph    
Max Gust Speed 25 mph    
Visibility 10 miles    
Events      
Averages and records for this station are not official NWS values.
T = Trace of Precipitation, MM = Missing Value Source: NWS Daily Summary

Daily Weather History Graph

Daily Weather History Graph

Search for Another Location

Airport or City:

Trip Planner

Search our weather history database for the weather conditions in past years. The results will help you decide how hot, cold, wet, or windy it might be!

Date:

Astronomy

Jan. 05, 2014 Rise Set
Actual Time 7:35 AM CST 4:34 PM CST
Civil Twilight 7:02 AM CST 5:07 PM CST
Nautical Twilight 6:25 AM CST 5:44 PM CST
Astronomical Twilight 5:50 AM CST 6:19 PM CST
Moon 10:04 AM CST 10:15 PM CST
Length of Visible Light 10h 05m
Length of Day
8h 59m
Waxing Crescent, 25% of the Moon is Illuminated
Jan 5
Waxing Crescent
Jan 7
First Quarter
Jan 15
Full
Jan 23
Last Quarter
Jan 30
New

Hourly Weather History & Observations

Time (CST) Temp. Windchill Dew Point Humidity Pressure Visibility Wind Dir Wind Speed Gust Speed Precip Events Conditions
12:54 AM 7.0 °F -5.7 °F -2.9 °F 64% 30.19 in 10.0 mi NW 8.1 mph - N/A   Clear
1:54 AM 6.1 °F -5.6 °F -2.9 °F 67% 30.20 in 10.0 mi NNW 6.9 mph - N/A   Clear
2:54 AM 3.9 °F -8.2 °F -4.0 °F 70% 30.23 in 10.0 mi NNW 6.9 mph - N/A   Clear
3:54 AM 3.0 °F -8.0 °F -5.1 °F 69% 30.25 in 10.0 mi NW 5.8 mph - N/A   Clear
4:54 AM 1.9 °F -12.9 °F -8.0 °F 63% 30.25 in 10.0 mi NNW 9.2 mph - N/A   Scattered Clouds
5:54 AM -0.0 °F -16.3 °F -9.0 °F 66% 30.27 in 10.0 mi NNW 10.4 mph - N/A   Scattered Clouds
6:54 AM -0.9 °F -19.1 °F -9.9 °F 66% 30.28 in 10.0 mi NNW 12.7 mph - N/A   Overcast
7:54 AM -2.0 °F -21.2 °F -9.9 °F 69% 30.28 in 10.0 mi NNW 13.8 mph - N/A   Mostly Cloudy
8:54 AM -2.9 °F -23.1 °F -11.9 °F 65% 30.29 in 10.0 mi NNW 15.0 mph - N/A   Overcast
9:54 AM -4.0 °F -23.0 °F -13.0 °F 65% 30.31 in 10.0 mi NNW 12.7 mph 23.0 mph N/A   Partly Cloudy
10:54 AM -5.1 °F -23.5 °F -14.1 °F 65% 30.31 in 10.0 mi NNW 11.5 mph - N/A   Clear
11:54 AM -6.0 °F -28.4 °F -15.0 °F 65% 30.27 in 10.0 mi NNW 17.3 mph 21.9 mph N/A   Clear
12:54 PM -5.1 °F -23.5 °F -16.1 °F 59% 30.25 in 10.0 mi NNW 11.5 mph - N/A   Clear
1:54 PM -5.1 °F -26.6 °F -17.0 °F 57% 30.23 in 10.0 mi NNW 16.1 mph - N/A   Clear
2:54 PM -4.0 °F -25.2 °F -17.0 °F 54% 30.24 in 10.0 mi NW 16.1 mph - N/A   Clear
3:54 PM -5.1 °F -24.3 °F -17.0 °F 57% 30.25 in 10.0 mi WNW 12.7 mph - N/A   Clear
4:54 PM -5.1 °F -21.5 °F -18.0 °F 54% 30.25 in 10.0 mi NW 9.2 mph - N/A   Clear
5:54 PM -6.0 °F -24.6 °F -18.9 °F 54% 30.25 in 10.0 mi NW 11.5 mph - N/A   Clear
6:54 PM -7.1 °F -29.8 °F -18.9 °F 56% 30.24 in 10.0 mi WNW 17.3 mph 25.3 mph N/A   Clear
7:54 PM -9.0 °F -30.2 °F -20.0 °F 59% 30.23 in 10.0 mi WNW 13.8 mph - N/A   Clear
8:54 PM -9.9 °F -32.8 °F -20.0 °F 61% 30.22 in 10.0 mi NW 16.1 mph - N/A   Partly Cloudy
10:54 PM -11.9 °F -33.0 °F -20.9 °F 64% 30.21 in 10.0 mi NW 12.7 mph 21.9 mph N/A   Clear
11:54 PM -14.1 °F -37.4 °F -22.0 °F 68% 30.20 in 10.0 mi NW 15.0 mph 23.0 mph N/A   Clear